SCP
0 1 1 1 1 1 1 1 1 1 1 1 0 0 0 0 0 0 0 0 0 0 0 0 0 0 0 1 1 1 1 1 1 1 1 1 0 0 0 0 0 0 0
0 0 1 1 1 1 1 1 1 1 1 1 1 0 0 0 0 0 0 0 0 0 0 0 0 0 1 1 1 1 1 1 1 1 1 1 0 0 0 0 0 0 1
0 0 1 1 1 1 1 1 1 1 1 1 1 1 0 0 0 0 0 0 0 0 0 0 0 1 1 1 1 1 1 1 1 1 1 1 0 0 0 1 1 1 1
0 0 1 1 1 1 1 1 1 1 1 1 1 1 1 0 0 0 0 0 0 0 0 0 0 1 1 1 1 1 1 1 1 1 1 0 0 1 1 1 1 1 1
0 0 0 1 1 1 1 1 1 1 1 1 1 1 1 1 0 0 0 0 0 1 1 1 1 1 1 2 1 1 1 1 1 0 0 0 1 1 1 1 1 1 1
0 0 0 0 1 1 1 1 1 1 1 1 1 1 1 1 1 0 0 0 0 1 1 1 1 1 2 2 2 1 1 1 1 0 0 0 1 1 1 1 1 1 1
0 0 0 0 0 0 1 1 1 1 1 1 1 1 1 1 1 1 1 0 0 1 1 1 1 2 2 2 2 2 1 1 0 0 0 0 1 1 1 1 1 1 1
0 0 0 0 0 0 0 1 1 1 1 1 1 1 1 1 1 1 1 1 1 1 1 1 1 2 2 2 2 2 1 1 0 0 0 0 1 1 1 1 1 1 1
0 0 0 0 0 0 0 0 1 1 1 2 1 1 1 1 1 1 1 1 1 1 1 1 1 2 2 2 2 1 1 0 0 0 0 1 1 1 1 1 1 1 1
0 0 0 0 0 0 0 0 1 1 1 2 2 1 1 1 1 1 1 1 1 1 1 1 1 2 2 2 2 1 1 0 0 0 1 1 1 1 1 1 1 1 1
0 0 0 0 0 0 0 0 0 1 1 1 1 1 1 1 1 1 0 1 1 1 1 1 1 2 2 2 1 1 0 0 0 1 1 1 1 1 1 1 1 1 1
0 0 0 0 0 0 0 0 0 1 1 1 1 1 1 1 1 1 1 1 1 1 1 1 2 2 2 1 1 1 0 0 0 0 1 1 1 1 1 1 1 1 1
0 0 0 0 0 0 0 0 0 0 1 1 1 1 1 1 1 1 1 1 1 1 1 1 2 2 1 1 1 0 0 0 0 0 1 1 1 1 1 1 1 1 1
0 0 0 0 0 0 0 0 0 0 0 1 1 1 1 1 1 1 2 2 2 1 1 2 1 1 1 1 0 0 0 0 0 0 0 1 1 1 1 1 1 1 1
0 0 0 0 0 0 0 0 0 0 0 0 1 1 1 1 1 2 2 2 2 2 2 2 1 1 0 0 0 0 0 0 0 0 0 0 1 1 1 1 1 1 1
0 0 0 -0 -0 -0 -0 0 0 0 0 0 0 1 1 1 1 1 2 3 3 2 2 2 1 0 0 0 0 0 0 0 0 0 0 0 0 1 1 1 1 1 1
-0 -0 -0 -0 -0 -0 0 0 0 0 0 0 0 0 0 1 1 1 2 3 3 2 2 2 1 0 0 0 0 0 0 0 0 0 0 0 0 1 1 1 1 1 0
-0 0 0 0 0 0 0 0 0 0 0 0 0 0 0 0 1 1 2 3 3 3 2 2 1 0 0 0 0 0 0 0 0 0 0 0 0 0 0 1 1 0 0
0 0 0 0 0 0 0 0 0 0 0 0 0 0 0 0 0 1 2 2 3 3 2 2 1 0 0 0 0 0 0 0 0 0 0 0 0 0 0 0 0 0 0
0 0 0 0 0 0 0 0 0 0 0 0 0 0 0 0 0 0 1 2 3 3 2 1 1 0 0 0 0 0 0 0 0 0 0 0 0 0 0 0 0 0 0
0 0 0 0 0 0 0 0 0 0 0 0 0 0 0 0 0 0 1 1 2 2 2 1 1 0 0 0 0 0 0 0 0 0 0 0 0 0 0 0 0 0 0
0 0 0 0 0 0 0 0 0 0 0 0 0 0 0 0 0 0 0 1 2 2 2 1 1 0 0 0 0 0 0 0 0 0 0 0 0 0 0 0 0 0 0
0 0 0 0 0 0 0 0 0 0 0 0 0 0 0 0 0 0 0 0 1 2 2 1 1 0 0 0 0 0 0 0 0 0 0 0 0 0 0 0 0 0 0
0 0 0 0 0 0 0 0 0 0 0 0 0 0 0 0 0 0 0 0 1 1 1 1 0 0 0 0 0 0 0 0 0 0 0 0 0 0 0 0 0 0 0
0 0 0 0 0 0 0 0 0 0 0 0 0 0 0 0 0 0 0 0 0 0 1 1 0 0 0 0 0 0 0 0 0 0 0 0 0 0 0 0 0 0 0
0 0 0 0 0 0 0 0 0 0 0 0 0 0 0 0 0 0 0 0 0 0 1 1 1 0 0 0 0 0 0 0 0 0 0 0 0 0 0 0 0 0 0
Wind_Speed
2 7 10 7 7 8 9 9 9 9 9 9 8 8 8 7 7 7 7 7 7 7 7 7 6 7 8 11 11 9 10 9 7 7 7 8 9 7 8 6 6 8 12
5 7 9 5 6 7 7 9 9 9 10 11 10 9 9 9 9 9 9 9 9 9 9 9 9 7 8 9 10 10 12 11 9 9 8 8 8 7 7 3 8 8 14
5 4 7 3 4 6 7 7 8 9 11 12 12 11 10 10 10 11 10 10 10 11 11 11 10 9 8 9 11 12 13 12 11 11 9 6 6 7 6 11 12 12 16
7 5 5 6 2 4 6 6 7 8 11 12 12 12 11 11 11 12 12 12 12 12 12 12 12 11 10 11 13 14 14 13 12 12 6 6 6 7 10 13 13 13 15
7 6 8 4 1 5 5 6 7 8 9 11 12 12 12 12 11 12 13 13 14 13 13 13 13 12 10 13 14 14 14 13 12 10 6 6 7 10 11 12 13 12 14
8 5 8 6 6 9 10 8 7 9 10 11 13 13 13 12 12 12 13 14 15 15 15 14 14 13 11 14 16 16 15 14 11 6 6 6 8 13 13 13 12 12 13
10 9 6 5 4 9 13 13 11 10 11 13 14 14 13 12 12 12 13 14 15 15 14 15 14 12 12 15 17 18 16 14 9 7 6 5 9 16 15 15 16 15 16
12 10 8 4 2 7 11 14 14 13 13 14 15 15 14 13 13 13 13 13 14 14 15 15 14 13 13 16 17 18 16 14 8 6 5 5 12 17 17 17 18 18 18
17 14 11 9 6 6 10 13 15 14 13 14 14 14 13 13 13 13 13 13 14 15 15 15 14 13 15 17 17 16 16 14 6 4 4 5 14 19 19 18 19 19 20
12 13 14 14 11 8 7 11 15 15 14 13 13 13 13 13 13 13 12 13 15 15 14 15 15 14 16 17 17 16 15 11 5 3 3 7 16 19 20 20 21 21 21
12 11 10 11 12 11 10 10 10 11 13 13 11 13 12 8 8 9 13 14 14 13 13 14 15 16 15 15 16 15 12 5 4 3 3 10 17 20 22 22 22 23 24
14 13 12 13 12 11 10 8 7 7 7 8 7 8 8 8 7 9 11 14 12 10 12 13 15 14 11 8 10 11 5 5 4 3 4 14 18 23 24 25 25 26 25
11 12 13 13 13 12 8 7 5 5 7 8 8 9 7 7 6 7 3 4 5 6 5 6 7 6 7 7 7 5 5 4 3 4 6 13 18 23 26 28 28 27 26
10 12 13 13 12 13 12 8 6 5 6 7 9 9 7 6 6 5 4 5 4 3 4 5 5 5 6 6 7 6 5 3 4 3 6 12 17 24 28 30 29 28 27
11 11 13 13 12 12 11 9 10 7 7 8 9 10 10 8 8 7 5 5 6 5 6 7 8 8 6 5 5 5 4 4 5 4 4 10 16 23 29 30 30 29 28
10 9 9 11 11 11 9 9 9 9 8 8 8 11 13 10 9 8 7 7 8 8 7 8 10 10 8 6 6 5 3 3 4 5 4 6 14 19 24 29 29 29 29
10 9 10 11 12 12 11 11 8 8 10 10 9 11 13 13 11 10 8 8 9 9 9 8 10 8 8 7 8 7 5 3 3 4 5 4 8 14 16 24 28 29 28
10 11 11 12 13 13 12 11 7 7 8 9 10 11 14 15 14 12 10 10 11 10 10 10 11 10 10 9 8 7 7 6 4 4 4 4 5 7 11 17 22 26 28
10 12 13 12 11 11 12 11 10 8 7 7 8 11 14 17 16 14 11 10 13 12 11 11 11 11 12 11 9 8 7 7 7 6 5 4 4 6 8 14 18 20 24
9 10 11 12 12 11 9 9 8 9 7 6 7 9 14 14 17 16 12 13 14 13 13 13 13 12 11 11 10 8 8 8 7 8 7 5 4 6 8 10 11 14 21
10 10 10 12 13 11 8 8 9 9 8 7 7 10 11 13 16 16 15 13 14 14 17 17 12 15 12 10 8 8 5 6 7 8 8 7 6 6 8 10 8 8 11
11 12 12 13 15 14 10 10 10 12 9 8 7 8 8 10 13 13 17 16 14 15 19 20 17 13 10 11 9 10 7 5 4 5 8 9 9 7 9 9 9 8 8
11 12 14 16 17 17 15 13 13 11 8 7 8 8 7 7 10 13 14 17 18 16 17 20 21 19 14 12 9 10 9 8 7 3 5 8 10 10 9 9 10 10 10
12 12 13 15 17 17 18 18 21 18 14 11 9 8 8 7 8 10 13 11 20 18 15 19 22 15 18 15 11 6 4 8 10 7 3 4 8 11 11 10 11 10 11
12 12 13 15 16 17 19 22 23 20 17 12 10 11 10 7 5 6 11 10 15 19 16 16 19 18 15 14 11 8 5 8 6 9 11 8 5 4 8 10 10 9 11
12 12 12 15 19 18 20 22 24 26 24 21 17 14 10 6 4 3 8 11 11 18 16 15 20 23 19 16 12 10 11 14 12 7 11 13 7 2 2 5 9 8 8
Wind_Direction
72 112 142 165 193 205 202 196 192 192 199 203 204 206 211 219 225 232 240 242 240 231 226 230 237 268 241 212 203 190 162 146 161 143 128 117 115 125 138 149 141 116 120
9 102 133 160 200 208 206 202 199 200 207 210 213 216 226 236 238 237 240 246 249 246 236 234 231 249 235 202 196 190 166 162 162 143 132 123 128 150 161 162 118 124 123
356 97 133 161 214 213 209 207 207 208 213 216 218 219 228 241 249 248 244 244 248 249 246 240 234 239 215 193 195 189 172 161 149 144 142 134 143 164 141 112 114 126 123
349 359 120 144 221 234 216 212 212 215 222 226 225 226 232 240 252 257 255 248 246 246 248 247 242 243 206 190 196 190 173 158 150 151 161 158 156 164 138 127 128 129 126
347 8 65 89 332 286 267 241 227 225 229 231 234 239 241 244 249 256 260 258 252 248 244 245 246 248 213 189 187 187 171 155 155 162 187 168 155 162 152 139 135 132 129
350 10 76 44 353 311 293 277 255 240 238 240 242 244 245 246 247 250 253 260 261 257 248 243 243 248 219 191 182 180 169 159 160 180 209 175 154 162 157 147 138 132 133
5 12 32 73 356 310 295 281 271 260 252 250 247 245 246 245 242 244 245 256 262 260 257 251 244 244 215 193 183 175 169 166 172 192 211 169 155 160 159 156 148 143 141
8 3 356 11 274 282 288 288 281 268 257 253 251 249 248 247 245 246 245 253 258 259 261 260 249 238 204 192 186 174 165 171 186 206 194 153 151 159 163 162 155 148 141
18 8 360 346 320 259 261 272 276 277 267 254 247 245 245 246 249 251 247 244 248 255 262 261 251 228 197 189 183 170 162 174 186 211 179 147 156 163 165 165 157 148 141
26 17 11 360 348 332 301 269 257 257 263 257 246 243 243 243 249 252 251 242 241 246 255 258 245 220 195 184 173 164 163 165 189 207 154 148 160 167 166 164 156 147 140
19 12 11 3 357 344 330 318 301 260 254 256 252 244 242 241 240 241 238 239 239 240 247 247 233 211 186 172 163 159 158 162 181 177 152 161 169 169 166 160 152 144 137
12 9 6 358 356 352 344 333 323 309 282 257 248 243 232 231 237 237 230 224 228 236 242 233 219 193 168 164 162 158 162 167 169 159 153 165 174 169 163 157 148 140 134
11 8 5 358 354 352 346 336 325 317 311 297 274 257 244 231 232 234 208 189 204 218 218 203 182 167 166 163 165 166 164 164 151 143 158 174 176 170 162 155 147 140 137
11 9 3 358 358 354 349 339 328 317 310 304 296 282 266 251 239 226 198 182 176 176 161 143 140 145 152 155 156 157 156 156 144 141 162 175 174 171 163 155 148 145 143
5 6 2 354 357 352 350 344 337 321 311 305 300 293 282 267 253 239 210 184 174 172 162 152 149 142 137 135 134 137 144 147 139 140 152 171 170 170 164 156 152 149 147
356 357 358 351 351 345 344 340 332 325 317 308 302 294 287 275 263 251 224 189 181 179 171 164 162 156 149 150 142 128 124 135 129 135 137 160 164 166 167 159 156 153 150
351 350 351 347 348 343 340 334 327 323 327 318 308 299 291 282 271 258 235 201 188 181 174 166 165 160 158 165 163 149 142 129 114 121 130 142 157 160 169 162 158 154 151
355 351 344 344 342 337 334 323 313 316 318 316 316 312 300 290 278 265 245 213 190 182 177 174 173 171 170 173 170 166 161 151 130 113 112 133 146 154 167 169 161 155 152
356 348 339 334 330 327 324 316 308 305 305 308 314 314 311 305 292 274 253 226 193 184 182 178 180 178 177 176 175 170 167 164 157 139 126 124 137 150 157 167 158 152 150
346 337 333 329 319 315 311 307 303 299 294 295 301 302 303 311 311 298 267 236 205 187 182 180 181 179 179 174 168 168 168 166 163 160 149 134 130 136 142 149 148 147 146
340 332 330 326 320 316 309 304 301 295 286 281 280 289 300 312 315 320 301 255 220 197 183 178 175 177 176 165 159 159 149 153 162 165 160 152 143 140 141 144 142 142 144
336 331 329 325 319 313 304 300 293 288 281 274 271 275 287 301 307 304 320 296 243 209 185 177 173 176 173 174 165 160 146 150 156 161 162 161 156 149 148 147 146 143 143
334 331 328 323 319 315 312 307 298 287 277 274 274 267 264 280 304 304 290 315 283 235 197 180 177 177 177 180 176 169 161 167 153 150 154 159 159 157 153 152 149 147 145
334 329 325 323 322 323 323 317 308 301 290 277 272 266 261 263 285 305 291 302 307 267 220 185 180 177 177 181 179 190 167 141 155 154 149 147 156 159 158 156 152 150 147
333 328 324 324 324 326 325 319 312 305 299 291 282 276 269 256 263 302 304 287 309 287 240 201 181 178 178 180 173 165 152 139 139 152 163 157 137 146 161 161 155 155 151
327 323 324 327 326 327 325 321 314 310 310 308 300 286 274 255 239 281 318 294 288 299 268 217 191 184 182 179 171 168 168 163 161 147 160 162 146 105 158 159 153 156 155